sat.trackr.live / text

‹ back to catalog

STARLINK-6319

NORAD 56532 · 2023-065AF

PAYLOAD ACTIVE UNKNOWN

§ Identity

Operator
Country
US
Launch date
2023-05-14
Launch site
AFETR
Launch vehicle
Mass (kg)
RCS (m²)

Purposes: comms

External: N2YO · Heavens-Above · Gunter

§ Orbital elements

Epoch: 2026-09-20T11:20:19.883040Z

Period
94.27 min
Inclination
43.0031°
Eccentricity
0.0000686
Mean motion
15.27574844 rev/d
Perigee alt
482.6 km
Apogee alt
483.5 km
Semi-major
6,861.2 km
B*
1.8651e-6
RAAN
178.2078°
Arg perigee
241.5994°
Mean anomaly
118.4789°
Rev number
18,655

§ Raw data

STARLINK-63191 56532U 23065AF  26263.47245235 -.00000211  00000+0  18651-5 0  99982 56532  43.0031 178.2078 0000686 241.5994 118.4789 15.27574844186551

JSON: /api/v1/satellites/56532 · /tle

For live sub-satellite position, see the globe view (requires WebGL).

§ Visibility from observer

Set your observer location to see the next 7 days of passes ≥ 10°. The values pass through the URL so the page stays shareable.

No JS? Fill the form by hand. The geolocation button needs JavaScript.